Regional Weather Roundup
Issued by NWS

Home | Current Version | Previous Version | Text Only | Print | Product List | Glossary On
Versions: 1 2 3 4 5 6 7 8 9 10 11 12 13 14 15 16 17 18 19 20 21 22 23 24 25 26 27 28 29 30 31 32 33 34 35
000
ASUS44 KBMX 230810
RWRAL

ALABAMA REGIONAL WEATHER ROUNDUP
NATIONAL WEATHER SERVICE BIRMINGHAM AL
300 AM CDT THU OCT 23 2014

NOTE: "FAIR" INDICATES FEW OR NO CLOUDS BELOW 12,000 FEET
WITH NO SIGNIFICANT WEATHER AND/OR OBSTRUCTIONS TO VISIBILITY.

THE REMARK "TC" DENOTES TEMPERATURE IN DEGREES CELSIUS.

ALZ001>011-014-016>018-020-230900-
NORTH ALABAMA

CITY           SKY/WX    TMP DP  RH WIND       PRES   REMARKS
MUSCLE SHOALS  CLEAR     48  41  76 CALM      30.19R
HUNTSVILLE     CLEAR     47  41  80 NE7       30.15F
DECATUR        CLEAR     45  41  86 N6        30.16F
HALEYVILLE     FAIR      42  40  93 CALM      30.18R
GADSDEN        CLEAR     43  37  81 N6        30.14S
$$

ALZ012-013-022-023-030>036-040>044-230900-
WEST CENTRAL ALABAMA

CITY           SKY/WX    TMP DP  RH WIND       PRES   REMARKS
TUSCALOOSA     CLEAR     46  42  86 NW5       30.12F
$$

ALZ015-024>027-033>036-040>044-230900-
CENTRAL ALABAMA

CITY           SKY/WX    TMP DP  RH WIND       PRES   REMARKS
BIRMINGHAM     CLEAR     46  42  86 CALM      30.13S
MONTGOMERY     CLEAR     51  42  71 NE3       30.10R
SHELBY CO ARPT CLEAR     53  43  68 VRB7      30.10F
MAXWELL AFB    CLEAR     52  43  69 NE5       30.09R
GREENVILLE     FAIR      50  42  74 N3        30.08S
$$

ALZ019-021-028-029-037-038-045>048-230900-
EAST CENTRAL ALABAMA

CITY           SKY/WX    TMP DP  RH WIND       PRES   REMARKS
ANNISTON       CLEAR     42  40  92 CALM      30.12F
ALEXANDER CITY CLEAR     48  44  85 N3        30.09S
AUBURN         CLEAR     46  37  71 NE12      30.11F
$$

ALZ051>064-230900-
SOUTHWEST ALABAMA

CITY           SKY/WX    TMP DP  RH WIND       PRES   REMARKS
MOBILE         CLEAR     48  45  89 N5        30.07S
BROOKLEY FIELD CLEAR     53  48  83 NW6       30.09S
EVERGREEN      CLEAR     45  42  89 CALM      30.08F
$$

ALZ049-050-065>069-230900-
SOUTHEAST ALABAMA

CITY           SKY/WX    TMP DP  RH WIND       PRES   REMARKS
DOTHAN         CLEAR     47  43  86 N7        30.09F
OZARK          CLEAR     51  44  76 N7        30.06F
TROY           CLEAR     41  39  93 CALM      30.08F
EUFAULA        FAIR      43  41  93 CALM      30.07F
$$



USA.gov is the U.S. government's official web portal to all federal, state and local government web resources and services.